Back to catalog

KHAYYAM

AliveScienceSSO
NORAD 53370·PAYLOAD·🇮🇷 Iran

Launched Aug 9, 2022 from Baikonur Cosmodrome

Loading…

Next Passes (next 24 hours)

TLE

FreshSource: Space-Track

Epoch: Sep 14, 2026, 15:13 UTC

1 53370U 22096A   26257.63464666  .00004057  00000-0  16728-3 0  9993
2 53370  97.3331 160.1648 0002683  85.5031 274.6513 15.24620493228223

Track KHAYYAM in real time with AllMySat

Download on the App Store